Weather History for Annette Island, AK

Change the Weather History Date:

Sunday, May 6, 2012

  Actual Average Record
Temperature  
Mean Temperature 45 °F 48 °F  
Max Temperature 46 °F 54 °F 74 °F (1981)
Min Temperature 43 °F 42 °F 32 °F (2002)
Degree Days  
Heating Degree Days 20 17  
Month to date heating degree days 121 105  
Since 1 July heating degree days 6457 6050  
Cooling Degree Days 0    
Month to date cooling degree days 0  
Year to date cooling degree days 0  
Moisture  
Dew Point 43 °F    
Average Humidity 0    
Maximum Humidity 0    
Minimum Humidity 0    
Precipitation  
Precipitation 1.74 in 0.18 in 3.08 in (1959)
Month to date precipitation 2.55 1.14  
Year to date precipitation 36.68 34.00  
Snow  
Snow 0.00 in 0.10 in T in (1991)
Month to date snowfall 0.0 0.1  
Since 1 July snowfall 50.4 34.9  
Snow Depth 0.00 in    
Sea Level Pressure  
Sea Level Pressure 30.13 in    
Wind  
Wind Speed 20 mph (SE)    
Max Wind Speed 33 mph    
Max Gust Speed 48 mph    
Visibility 5 miles    
Events Rain    
T = Trace of Precipitation, MM = Missing Value Source: NWS Daily Summary

Daily Weather History Graph

Daily Weather History Graph

Search for Another Location

Airport:

Trip Planner

Search our weather history database for the weather conditions in past years. The results will help you decide how hot, cold, wet, or windy it might be!

Date:

Astronomy

May. 06, 2012 Rise Set
Actual Time 4:54 AM AKDT 8:32 PM AKDT
Civil Twilight 4:09 AM AKDT 9:17 PM AKDT
Nautical Twilight 3:07 AM AKDT 10:21 PM AKDT
Astronomical Twilight 1:11 AM AKDT 12:10 AM AKDT
Moon 10:01 PM AKDT (5/6) 5:01 AM AKDT (5/6)
Length of Visible Light 17h 08m
Length of Day
15h 38m
Full, 99% of the Moon is Illuminated
May 6
Full
May 12
Last Quarter
May 20
New
May 28
First Quarter
Jun 4
Full

Hourly Weather History & Observations

Time (AKDT) Temp. Windchill Dew Point Humidity Pressure Visibility Wind Dir Wind Speed Gust Speed Precip Events Conditions
12:53 AM 43.0 °F 35.7 °F 39.0 °F 86% 30.24 in 10.0 mi SE 15.0 mph 27.6 mph 0.04 in Rain Light Rain
1:53 AM 43.0 °F 36.0 °F 39.9 °F 89% 30.22 in 10.0 mi ESE 13.8 mph 28.8 mph 0.05 in Rain Light Rain
2:53 AM 43.0 °F 35.1 °F 41.0 °F 93% 30.19 in 7.0 mi SE 17.3 mph 26.5 mph 0.04 in Rain Light Rain
3:53 AM 44.1 °F 35.7 °F 41.0 °F 89% 30.18 in 10.0 mi SE 20.7 mph 27.6 mph 0.02 in Rain Light Rain
4:53 AM 44.1 °F 36.2 °F 41.0 °F 89% 30.17 in 7.0 mi SE 18.4 mph 27.6 mph 0.07 in Rain Rain
5:12 AM 44.6 °F 36.4 °F 41.0 °F 87% 30.16 in 7.0 mi SE 20.7 mph 29.9 mph 0.03 in Rain Rain
5:53 AM 44.1 °F 35.9 °F 41.0 °F 89% 30.16 in 6.0 mi SE 19.6 mph 29.9 mph 0.11 in Rain Rain
6:53 AM 44.1 °F 34.6 °F 41.0 °F 89% 30.14 in 5.0 mi SE 26.5 mph 43.7 mph 0.18 in Rain Rain
7:53 AM 44.1 °F 35.7 °F 42.1 °F 93% 30.15 in 4.0 mi SE 20.7 mph 33.4 mph 0.18 in Rain Rain
8:53 AM 45.0 °F 36.9 °F 42.1 °F 90% 30.14 in 5.0 mi SE 20.7 mph 32.2 mph 0.15 in Rain Rain
9:00 AM 44.6 °F 35.9 °F 42.8 °F 93% 30.13 in 5.0 mi SE 23.0 mph 32.2 mph 0.01 in Rain Rain
9:53 AM 46.0 °F 36.7 °F 42.1 °F 86% 30.12 in 4.0 mi SE 29.9 mph 41.4 mph 0.11 in Rain Rain
10:53 AM 46.0 °F 37.4 °F 43.0 °F 89% 30.12 in 5.0 mi SE 25.3 mph 42.6 mph 0.15 in Rain Rain
11:00 AM 46.4 °F 37.4 °F 42.8 °F 87% 30.12 in 5.0 mi SE 28.8 mph 44.9 mph 0.02 in Rain Rain
11:29 AM 46.4 °F 37.7 °F 42.8 °F 87% 30.12 in 5.0 mi SE 26.5 mph 39.1 mph 0.08 in Rain Rain
11:53 AM 46.0 °F 37.6 °F 43.0 °F 89% 30.13 in 5.0 mi SE 24.2 mph 38.0 mph 0.12 in Rain Rain
12:53 PM 46.0 °F 37.2 °F 43.0 °F 89% 30.12 in 4.0 mi SE 26.5 mph 42.6 mph 0.12 in Rain Rain
1:53 PM 46.0 °F 38.3 °F 43.0 °F 89% 30.12 in 3.0 mi SE 20.7 mph 38.0 mph 0.14 in Rain Rain
2:53 PM 46.0 °F 37.8 °F 43.0 °F 89% 30.11 in 4.0 mi SE 23.0 mph 34.5 mph 0.16 in Rain Rain
3:21 PM 46.4 °F 38.1 °F 42.8 °F 87% 30.10 in 5.0 mi SE 24.2 mph 36.8 mph 0.05 in Rain Rain
3:53 PM 46.0 °F 37.6 °F 44.1 °F 93% 30.10 in 4.0 mi SE 24.2 mph 35.7 mph 0.12 in Rain Rain
4:31 PM 46.4 °F 38.3 °F 44.6 °F 93% 30.10 in 2.5 mi SE 23.0 mph 34.5 mph 0.07 in Rain Rain
4:43 PM 46.4 °F 38.7 °F 44.6 °F 93% 30.10 in 3.0 mi SE 20.7 mph 32.2 mph 0.10 in Rain Light Rain
4:51 PM 46.4 °F 39.2 °F 44.6 °F 93% 30.10 in 2.0 mi SE 18.4 mph 32.2 mph 0.12 in Rain Rain
4:53 PM 46.0 °F 38.3 °F 44.1 °F 93% 30.11 in 2.5 mi SE 20.7 mph 32.2 mph 0.12 in Rain Rain
5:53 PM 46.0 °F 39.0 °F 44.1 °F 93% 30.12 in 5.0 mi SE 17.3 mph 27.6 mph 0.09 in Rain Light Rain
6:27 PM 46.4 °F 39.5 °F 44.6 °F 93% 30.11 in 2.5 mi SE 17.3 mph 35.7 mph 0.02 in Rain Light Rain
6:53 PM 46.0 °F 38.3 °F 44.1 °F 93% 30.12 in 2.0 mi SE 20.7 mph 27.6 mph 0.03 in Rain Light Rain
7:31 PM 46.4 °F 39.2 °F 44.6 °F 93% 30.10 in 1.8 mi SE 18.4 mph 28.8 mph 0.02 in Rain Light Rain
7:45 PM 46.4 °F 38.7 °F 44.6 °F 93% 30.10 in 2.5 mi SE 20.7 mph 33.4 mph 0.04 in Rain Light Rain
7:53 PM 46.0 °F 39.0 °F 44.1 °F 93% 30.10 in 3.0 mi SE 17.3 mph 33.4 mph 0.05 in Rain Light Rain
8:25 PM 46.4 °F 37.7 °F 44.6 °F 93% 30.09 in 2.5 mi SE 26.5 mph 34.5 mph 0.05 in Rain Rain
8:32 PM 46.4 °F 38.3 °F 44.6 °F 93% 30.10 in 4.0 mi SE 23.0 mph 36.8 mph 0.07 in Rain Rain
8:53 PM 46.0 °F 38.0 °F 44.1 °F 93% 30.10 in 4.0 mi SE 21.9 mph 31.1 mph 0.10 in Rain Rain
9:53 PM 45.0 °F 37.6 °F 43.0 °F 93% 30.09 in 6.0 mi SE 17.3 mph 27.6 mph 0.10 in Rain Light Rain
10:53 PM 44.1 °F 36.8 °F 43.0 °F 96% 30.09 in 4.0 mi ESE 16.1 mph 25.3 mph 0.08 in Rain Light Rain
11:53 PM 45.0 °F 38.5 °F 43.0 °F 93% 30.07 in 5.0 mi ESE 13.8 mph 23.0 mph 0.09 in Rain Rain